{"data":{"norad_id":43569,"intl_designator":"2018-061A","name":"IRIDIUM 160","alt_names":[],"object_type":"PAYLOAD","status":"ACTIVE","operator":null,"country":"US","launch_date":"2018-07-25","launch_site_code":"AFWTR","launch_vehicle":null,"mission":null,"orbit_class":"UNKNOWN","rcs_meters":null,"size_class":null,"mass_kg":null,"dimensions":null,"purposes":["comms"],"wikipedia_slug":null,"has_3d_model":false,"image_url":null,"decayed_at":null,"tle_current":{"epoch":"2026-05-25T04:13:50.510784Z","epoch_age_seconds":73994,"freshness":"FRESH","line1":"1 43569U 18061A   26145.17627906  .00000027  00000+0  26860-5 0  9994","line2":"2 43569  86.3970  66.4165 0002250  87.2278 272.9175 14.34217390410072","mean_motion":14.3421739,"eccentricity":0.000225,"inclination_deg":86.397,"raan_deg":66.4165,"arg_perigee_deg":87.2278,"mean_anomaly_deg":272.9175,"bstar":2.686e-6,"rev_number":41007,"period_min":100.40318922643,"perigee_km":776.05829559188,"apogee_km":779.27840800019,"semimajor_km":7155.805351796,"source":"CELESTRAK","updated_at":"2026-05-25T13:38:14.811055Z"}}}